STARLINK-37054, 68082

Orbit data source: Space-Track

STARLINK-37054, 68082 is a payload satellite owned by SpaceX/Seattle (US) in LEO that was launched on Wed, 04 Mar 2026 UTC via an FALCON 9 launch vehicle from the Air Force Eastern Test Range (AFETR). Payload-class satellites include a variety of spacecraft equipped with specific instruments for various scientific and technological missions. These include communications satellites like Starlink; space stations such as the ISS; scientific satellites like the Hubble; Earth observation satellites from companies like Planet Labs, Umbra, and HawkEye 360; GPS; miniature CubeSats for education and research; and military/defense satellites.

Loading next visibility...
Identifier
68082, 2026-042P
Orbit
LEO
Country
Flag of USUS
Related business
Manufacturer
SpaceX/Seattle
Mission
Operational spacecraft
Bus & Motor
STARLINK V2MO, Unknown motor
Mass
575 kg wet, ~530 kg dry
Launch date (UTC)
2026-03-04 (1 month ago)
Launch vehicle
FALCON 9
Launch site
Air Force Eastern Test Range (AFETR)
Object type
Payload
Rocket body
Debris
Shape & HBR
Unknown shape, 17.7 m
Radar Cross Section
RCS unknown

Expand to show TLE details & history
Last TLE update: 10 hours ago

TLE from 10 hours ago
0 STARLINK-37054
1 68082U 26042P   26102.16486249  .00113626  00000-0  73527-3 0  9995
2 68082  53.1586  27.3059 0001126  90.7059 269.4091 15.75245635  7371
Epoch: 2026-04-12T03:57Z
TLE epoch observation values (Epoch: 2026-04-12T03:57:24.119Z)
Latitude
0.00005°
Longitude
127.5817°
Altitude
344.857 km
Speed
7.703 km/s
True Right ascension
01h 49m 13s
True Declination
0° 00' 00"
Sunlit
Object was in daylight at epoch
Visualization orbit readout
Latitude
Unknown
Longitude
Unknown
Altitude
Unknown
Speed
Unknown
Apparent Right ascension
Unknown
Apparent Declination
Unknown
Sunlit
N/A
Visualization observer readout
Local Sidereal Time
19:52:19
Azimuth
Unknown
Elevation
Unknown
Doppler factor
Unknown
Orbital elements
Apogee altitude
344.951 km
Perigee altitude
343.437 km
Semi-major axis
6,722.331 km
Eccentricity
0.00011
Inclination
53.1586°
RAAN
27.3059°
Arg. of periapsis
90.7059°
True anomaly
269.3962°
Mean anomaly
269.4091°
Eccentric anomaly
269.40265°
Mean motion
3.93789 °/min
Orbital period
91.42 mins
BSTAR
0.00073527
Loading maneuver chart data...
Computing Atmospheric mass density...
Loading historical data...
Loading historical data...
Loading historical data...
Loading historical data...
Loading historical data...
Loading historical data...
Loading historical data...

Documentation

Showing up to 5 results
|